sat.trackr.live / text

‹ back to catalog

STARLINK-35256

NORAD 66011 · 2025-232G

PAYLOAD ACTIVE UNKNOWN

§ Identity

Operator
Country
US
Launch date
2025-10-16
Launch site
AFETR
Launch vehicle
Mass (kg)
RCS (m²)

Purposes: comms

External: N2YO · Heavens-Above · Gunter

§ Orbital elements

Epoch: 2026-09-20T06:14:45.472128Z

Period
93.85 min
Inclination
53.1566°
Eccentricity
0.0000868
Mean motion
15.34407241 rev/d
Perigee alt
462.1 km
Apogee alt
463.3 km
Semi-major
6,840.8 km
B*
3.9794e-4
RAAN
278.8413°
Arg perigee
77.7794°
Mean anomaly
282.3306°
Rev number
5,324

§ Raw data

STARLINK-352561 66011U 25232G   26263.26024852  .00013095  00000+0  39794-3 0  99982 66011  53.1566 278.8413 0000868  77.7794 282.3306 15.34407241 53247

JSON: /api/v1/satellites/66011 · /tle

For live sub-satellite position, see the globe view (requires WebGL).

§ Visibility from observer

Set your observer location to see the next 7 days of passes ≥ 10°. The values pass through the URL so the page stays shareable.

No JS? Fill the form by hand. The geolocation button needs JavaScript.